Regional Weather Roundup
Issued by NWS

Home | Current Version | Previous Version | Text Only | Print | Product List | Glossary Off
Versions: 1 2 3 4 5 6 7 8 9 10 11 12 13 14 15 16 17 18 19 20 21 22 23 24 25 26 27 28 29 30 31 32 33 34 35 36 37 38 39 40 41 42 43 44 45 46 47 48 49 50

000
ASUS45 KSLC 241410
RWRUT

UTAH REGIONAL WEATHER ROUNDUP
NATIONAL WEATHER SERVICE SALT LAKE CITY UT
800 AM MDT FRI APR 24 2015

UTZ001>011-023>025-241500-

NORTHERN UTAH

CITY           SKY/WX    TMP DP  RH WIND       PRES   REMARKS
BRIGHAM CITY   CLOUDY    52  40  64 CALM      29.72S
HILL AFB       PTSUNNY   50  37  61 E9        29.72S
LOGAN          CLOUDY    44  42  93 CALM      29.72R
OGDEN          PTSUNNY   53  37  54 SE6       29.71S
PROVO AIRPORT  PTSUNNY   48  30  49 SE10      29.77R
SALT LAKE CITY MOSUNNY   54  35  48 S9        29.71F
VERNAL         SUNNY     43  32  65 NE5       29.79R
WENDOVER       CLOUDY    52  36  54 NE7       29.71S
HEBER CITY     MOSUNNY   36  30  80 CALM      29.79S
WEST JORDAN    SUNNY     52  37  58 S15       29.74S

$$

UTZ012>022-026-027-241500-

SOUTHERN/CENTRAL UTAH

CITY           SKY/WX    TMP DP  RH WIND       PRES   REMARKS
BLANDING       PTSUNNY   45  27  50 NE5       29.92R
BRYCE CANYON   PTSUNNY   32  24  72 W6        29.91R WCI  26
CEDAR CITY     MOSUNNY   42  26  53 CALM      29.84R
DELTA          SUNNY     48  28  45 S12       29.77S
HANKSVILLE     SUNNY     45  23  42 CALM      29.79S
MILFORD        SUNNY     46  28  49 SW14      29.81R
MOAB/CYNLANDS  SUNNY     51  30  44 E3        29.74S
PRICE          PTSUNNY   46  23  40 CALM      29.79R
ST GEORGE      MOSUNNY   54  30  40 SE6       29.85R

$$

REGIONAL REPORTS     COLORADO/ARIZONA

CITY           SKY/WX    TMP DP  RH WIND       PRES   REMARKS
CRAIG, CO      SUNNY     35  31  85 CALM      29.82S
GRAND JUNCTION MOSUNNY   49  32  52 SE14      29.77S
RIFLE          MOSUNNY   41  32  70 N3        29.82S
MONTROSE       PTSUNNY   46  31  55 S5        29.84S
CORTEZ         SUNNY     48  30  49 CALM      29.87R
PAGE, AZ       SUNNY     55  30  38 CALM      29.84R
GRAND CANYON   CLOUDY    33  22  63 CALM      29.94R
KINGMAN        SUNNY     50  40  68 SW3       29.87R
FLAGSTAFF      MOSUNNY   36  29  75 SW8       29.96R WCI  30

$$

REGIONAL REPORTS    NEVADA/IDAHO/WYOMING

CITY           SKY/WX    TMP DP  RH WIND       PRES   REMARKS
LAS VEGAS, NV  MOSUNNY   61  40  45 S13       29.74R
ELY            CLOUDY    43  30  60 SW10      29.80S
ELKO           CLOUDY    38  34  85 S3        29.74R
POCATELLO, ID  SUNNY     40  36  86 SE5       29.70R
BURLEY         CLOUDY    46  35  65 W12       29.69S
EVANSTON, WY   CLOUDY    39  33  79 SW7       29.79S WCI  34
ROCK SPRINGS   MOSUNNY   39  33  79 N5        29.78F

$$



USA.gov is the U.S. government's official web portal to all federal, state and local government web resources and services.